GAB3267 LIBD-LBSF

Flight info

Callsign GAB3267
Flight time 0h 54m
Altitude FL350
Route VURK5W VURKE PAPIZ MAVAR BUREK SKJ SIN T215 VELBA T343 MOREK MORE5H
Aircraft B38M/M-SDE1FGHILORVWXY/HB1

Departure

Time 2026-04-30 09:41
Airport Bari Karol Wojtyła International Airport (LIBD)

Arrival

Time 2026-04-30 10:36
Airport Sofia Airport (LBSF)
Time Latitude Longitude Altitude Speed Heading
2026-04-30 09:24 41.13532 16.76342 145 ft 0 kts 162°
2026-04-30 09:31 41.13548 16.76333 145 ft 4 kts 160°
2026-04-30 09:31 41.13574 16.76325 144 ft 4 kts 180°
2026-04-30 09:32 41.13597 16.76334 143 ft 4 kts 223°
2026-04-30 09:32 41.13605 16.76349 142 ft 1 kts 248°
2026-04-30 09:36 41.13601 16.76335 142 ft 2 kts 247°
2026-04-30 09:37 41.13599 16.76328 143 ft 0 kts 248°
2026-04-30 09:37 41.13586 16.76287 144 ft 11 kts 249°
2026-04-30 09:37 41.13558 16.76182 147 ft 12 kts 256°
2026-04-30 09:37 41.13587 16.76083 147 ft 13 kts 311°
2026-04-30 09:38 41.13633 16.75980 148 ft 12 kts 273°
2026-04-30 09:38 41.13616 16.75891 152 ft 8 kts 249°
2026-04-30 09:38 41.13597 16.75822 155 ft 11 kts 250°
2026-04-30 09:38 41.13560 16.75686 157 ft 20 kts 249°
2026-04-30 09:39 41.13503 16.75478 161 ft 28 kts 250°
2026-04-30 09:39 41.13424 16.75209 165 ft 34 kts 247°
2026-04-30 09:39 41.13347 16.74952 173 ft 30 kts 250°
2026-04-30 09:39 41.13279 16.74710 182 ft 27 kts 249°
2026-04-30 09:40 41.13215 16.74477 191 ft 26 kts 248°
2026-04-30 09:40 41.13169 16.74252 199 ft 25 kts 287°
2026-04-30 09:40 41.13293 16.74117 187 ft 23 kts 17°
2026-04-30 09:40 41.13362 16.74320 192 ft 48 kts 67°
2026-04-30 09:41 41.13589 16.75100 162 ft 127 kts 70°
2026-04-30 09:41 41.13989 16.76413 217 ft 175 kts 65°
2026-04-30 09:41 41.14481 16.78003 732 ft 189 kts 68°
2026-04-30 09:41 41.14894 16.79652 1622 ft 188 kts 71°
2026-04-30 09:42 41.15305 16.81420 2003 ft 220 kts 72°
2026-04-30 09:42 41.15853 16.83380 2725 ft 226 kts 68°
2026-04-30 09:42 41.16434 16.85352 3529 ft 235 kts 67°
2026-04-30 09:42 41.17040 16.87439 4161 ft 250 kts 68°
2026-04-30 09:43 41.17666 16.89618 4975 ft 254 kts 68°
2026-04-30 09:43 41.18298 16.91831 5820 ft 261 kts 68°
2026-04-30 09:43 41.18740 16.94226 6352 ft 279 kts 89°
2026-04-30 09:43 41.18572 16.96807 7143 ft 282 kts 94°
2026-04-30 09:44 41.18564 16.99436 7876 ft 290 kts 89°
2026-04-30 09:44 41.18571 17.02129 8672 ft 294 kts 90°
2026-04-30 09:44 41.18555 17.04861 9417 ft 300 kts 90°
2026-04-30 09:44 41.18529 17.07644 10170 ft 305 kts 90°
2026-04-30 09:45 41.18494 17.10518 10666 ft 321 kts 90°
2026-04-30 09:45 41.18450 17.13555 11077 ft 338 kts 90°
2026-04-30 09:45 41.18479 17.16724 11592 ft 350 kts 82°
2026-04-30 09:45 41.18886 17.19917 12329 ft 353 kts 79°
2026-04-30 09:46 41.19260 17.23167 13023 ft 360 kts 80°
2026-04-30 09:46 41.19618 17.26476 13776 ft 365 kts 80°
2026-04-30 09:46 41.19967 17.29832 14507 ft 371 kts 81°
2026-04-30 09:46 41.20312 17.33242 15246 ft 376 kts 81°
2026-04-30 09:47 41.20658 17.36696 15973 ft 381 kts 81°
2026-04-30 09:47 41.21123 17.41375 16888 ft 388 kts 81°
2026-04-30 09:47 41.21358 17.43747 17330 ft 391 kts 81°
2026-04-30 09:47 41.21713 17.47346 17950 ft 397 kts 81°
2026-04-30 09:48 41.22073 17.50995 18591 ft 401 kts 81°
2026-04-30 09:48 41.22434 17.54682 19192 ft 406 kts 82°
2026-04-30 09:48 41.22799 17.58413 19797 ft 410 kts 82°
2026-04-30 09:48 41.23166 17.62187 20391 ft 414 kts 82°
2026-04-30 09:49 41.23535 17.65988 20960 ft 418 kts 82°
2026-04-30 09:49 41.23907 17.69839 21472 ft 423 kts 82°
2026-04-30 09:49 41.24282 17.73723 22038 ft 426 kts 82°
2026-04-30 09:49 41.24658 17.77636 22550 ft 430 kts 82°
2026-04-30 09:50 41.25036 17.81587 23050 ft 434 kts 82°
2026-04-30 09:50 41.25416 17.85581 23509 ft 439 kts 82°
2026-04-30 09:50 41.25850 17.89593 23996 ft 441 kts 77°
2026-04-30 09:50 41.26602 17.93560 24452 ft 445 kts 75°
2026-04-30 09:51 41.27305 17.97566 24908 ft 448 kts 76°
2026-04-30 09:51 41.27996 18.01618 25360 ft 451 kts 76°
2026-04-30 09:51 41.28682 18.05699 25816 ft 455 kts 76°
2026-04-30 09:51 41.29366 18.09806 26232 ft 458 kts 76°
2026-04-30 09:52 41.30052 18.13935 26672 ft 460 kts 76°
2026-04-30 09:52 41.30741 18.18096 27095 ft 462 kts 76°
2026-04-30 09:52 41.31431 18.22269 27487 ft 465 kts 76°
2026-04-30 09:52 41.32125 18.26479 27893 ft 467 kts 76°
2026-04-30 09:53 41.32819 18.30702 28300 ft 470 kts 75°
2026-04-30 09:53 41.33516 18.34952 28655 ft 472 kts 76°
2026-04-30 09:53 41.34215 18.39220 29033 ft 474 kts 75°
2026-04-30 09:53 41.34915 18.43510 29404 ft 476 kts 75°
2026-04-30 09:54 41.35617 18.47821 29760 ft 478 kts 75°
2026-04-30 09:54 41.36320 18.52148 30083 ft 481 kts 75°
2026-04-30 09:54 41.37024 18.56499 30420 ft 483 kts 75°
2026-04-30 09:54 41.37731 18.60871 30754 ft 485 kts 75°
2026-04-30 09:55 41.38439 18.65266 31044 ft 488 kts 75°
2026-04-30 09:55 41.39150 18.69687 31333 ft 491 kts 75°
2026-04-30 09:55 41.39862 18.74127 31655 ft 492 kts 75°
2026-04-30 09:55 41.40575 18.78585 31952 ft 494 kts 75°
2026-04-30 09:56 41.41289 18.83068 32232 ft 497 kts 75°
2026-04-30 09:56 41.42006 18.87571 32526 ft 499 kts 75°
2026-04-30 09:56 41.42724 18.92094 32803 ft 501 kts 75°
2026-04-30 09:56 41.43443 18.96638 33059 ft 504 kts 75°
2026-04-30 09:57 41.44163 19.01202 33341 ft 505 kts 75°
2026-04-30 09:57 41.44884 19.05784 33650 ft 506 kts 75°
2026-04-30 09:57 41.45603 19.10369 33977 ft 506 kts 75°
2026-04-30 09:57 41.46319 19.14950 34328 ft 506 kts 75°
2026-04-30 09:58 41.47034 19.19526 34695 ft 505 kts 75°
2026-04-30 09:58 41.47745 19.24098 35023 ft 505 kts 75°
2026-04-30 09:58 41.48457 19.28684 35134 ft 506 kts 75°
2026-04-30 09:58 41.49164 19.33254 35113 ft 503 kts 75°
2026-04-30 09:59 41.51970 19.51510 35109 ft 504 kts 75°
2026-04-30 10:00 41.54064 19.65261 35111 ft 506 kts 75°
2026-04-30 10:01 41.56143 19.79044 35117 ft 507 kts 75°
2026-04-30 10:02 41.58210 19.92862 35099 ft 507 kts 75°
2026-04-30 10:02 41.59581 20.02089 35122 ft 508 kts 75°
2026-04-30 10:03 41.60947 20.11339 35111 ft 509 kts 75°
2026-04-30 10:03 41.62307 20.20604 35108 ft 509 kts 76°
2026-04-30 10:04 41.63658 20.29858 35112 ft 508 kts 76°
2026-04-30 10:04 41.64999 20.39104 35113 ft 507 kts 76°
2026-04-30 10:05 41.66332 20.48347 35126 ft 507 kts 76°
2026-04-30 10:05 41.68104 20.57391 35123 ft 500 kts 67°
2026-04-30 10:06 41.70270 20.66271 35103 ft 501 kts 68°
2026-04-30 10:06 41.72435 20.75129 35136 ft 503 kts 68°
2026-04-30 10:07 41.74599 20.84004 35139 ft 501 kts 68°
2026-04-30 10:07 41.76757 20.92881 35164 ft 502 kts 68°
2026-04-30 10:08 41.78907 21.01764 35159 ft 502 kts 69°
2026-04-30 10:08 41.81049 21.10646 35183 ft 502 kts 69°
2026-04-30 10:09 41.83183 21.19533 35234 ft 503 kts 69°
2026-04-30 10:09 41.85314 21.28456 35205 ft 503 kts 69°
2026-04-30 10:10 41.87439 21.37390 35233 ft 504 kts 69°
2026-04-30 10:10 41.89557 21.46333 35224 ft 504 kts 70°
2026-04-30 10:11 41.91672 21.55292 35236 ft 505 kts 70°
2026-04-30 10:11 41.93610 21.64350 35220 ft 508 kts 81°
2026-04-30 10:12 41.94171 21.73804 35227 ft 509 kts 83°
2026-04-30 10:12 41.94807 21.83272 35231 ft 511 kts 84°
2026-04-30 10:13 41.95407 21.92721 35151 ft 500 kts 84°
2026-04-30 10:13 41.95697 21.97345 34768 ft 495 kts 84°
2026-04-30 10:13 41.95983 22.01931 34227 ft 493 kts 84°
2026-04-30 10:13 41.96267 22.06494 33694 ft 491 kts 84°
2026-04-30 10:14 41.96546 22.11053 33160 ft 490 kts 84°
2026-04-30 10:14 41.96824 22.15592 32656 ft 487 kts 84°
2026-04-30 10:14 41.97370 22.24600 31695 ft 482 kts 84°
2026-04-30 10:15 41.97638 22.29067 31206 ft 480 kts 84°
2026-04-30 10:15 41.97905 22.33528 30722 ft 478 kts 84°
2026-04-30 10:15 41.98069 22.37965 30200 ft 477 kts 91°
2026-04-30 10:15 41.97921 22.42396 29702 ft 474 kts 92°
2026-04-30 10:16 41.97817 22.46792 29284 ft 470 kts 92°
2026-04-30 10:16 41.97706 22.51158 28829 ft 467 kts 92°
2026-04-30 10:16 41.97613 22.54753 28435 ft 465 kts 92°
2026-04-30 10:17 41.97380 22.63346 27600 ft 458 kts 92°
2026-04-30 10:17 41.97144 22.71826 26757 ft 452 kts 92°
2026-04-30 10:17 41.97025 22.76019 26345 ft 449 kts 92°
2026-04-30 10:18 41.96905 22.80187 25952 ft 445 kts 92°
2026-04-30 10:18 41.96910 22.84314 25479 ft 443 kts 81°
2026-04-30 10:18 41.97701 22.88265 24937 ft 435 kts 60°
2026-04-30 10:19 42.01311 22.94373 24211 ft 411 kts 39°
2026-04-30 10:19 42.03302 22.97105 23830 ft 408 kts 39°
2026-04-30 10:19 42.05291 22.99801 23304 ft 409 kts 38°
2026-04-30 10:19 42.07320 23.02525 22512 ft 417 kts 39°
2026-04-30 10:20 42.09391 23.05300 21734 ft 424 kts 39°
2026-04-30 10:20 42.13625 23.10972 20114 ft 436 kts 40°
2026-04-30 10:20 42.15784 23.13865 19308 ft 441 kts 40°
2026-04-30 10:21 42.17959 23.16786 18491 ft 445 kts 41°
2026-04-30 10:21 42.20159 23.19743 17642 ft 448 kts 41°
2026-04-30 10:21 42.22363 23.22709 16803 ft 451 kts 42°
2026-04-30 10:21 42.24569 23.25680 16227 ft 446 kts 42°
2026-04-30 10:22 42.26743 23.28607 15676 ft 440 kts 42°
2026-04-30 10:22 42.28888 23.31492 15162 ft 433 kts 41°
2026-04-30 10:22 42.31231 23.33939 14726 ft 421 kts 32°
2026-04-30 10:22 42.33595 23.36201 14323 ft 414 kts 32°
2026-04-30 10:23 42.35912 23.38443 13920 ft 408 kts 33°
2026-04-30 10:23 42.38194 23.40660 13534 ft 401 kts 33°
2026-04-30 10:23 42.40425 23.42831 13250 ft 392 kts 33°
2026-04-30 10:23 42.42609 23.44958 13008 ft 383 kts 33°
2026-04-30 10:24 42.44756 23.46996 12772 ft 372 kts 27°
2026-04-30 10:24 42.47102 23.48204 12609 ft 354 kts 11°
2026-04-30 10:24 42.49436 23.49108 12404 ft 346 kts 13°
2026-04-30 10:24 42.51704 23.50025 12207 ft 336 kts 13°
2026-04-30 10:25 42.53906 23.50918 12038 ft 327 kts 13°
2026-04-30 10:25 42.56048 23.51788 11918 ft 317 kts 13°
2026-04-30 10:25 42.58038 23.52981 11790 ft 312 kts 34°
2026-04-30 10:25 42.59465 23.55112 11720 ft 304 kts 60°
2026-04-30 10:26 42.60093 23.57763 11657 ft 291 kts 86°
2026-04-30 10:26 42.60042 23.60427 11598 ft 278 kts 95°
2026-04-30 10:26 42.59920 23.62994 11461 ft 267 kts 95°
2026-04-30 10:26 42.59790 23.65498 11172 ft 264 kts 95°
2026-04-30 10:27 42.59656 23.67921 11018 ft 253 kts 96°
2026-04-30 10:27 42.59521 23.70249 10769 ft 243 kts 96°
2026-04-30 10:27 42.59385 23.72499 10483 ft 237 kts 96°
2026-04-30 10:27 42.59255 23.74708 10134 ft 234 kts 95°
2026-04-30 10:28 42.59155 23.76893 9759 ft 231 kts 95°
2026-04-30 10:28 42.59058 23.79048 9412 ft 228 kts 94°
2026-04-30 10:28 42.58960 23.81177 9034 ft 225 kts 95°
2026-04-30 10:28 42.59088 23.83254 8641 ft 222 kts 66°
2026-04-30 10:29 42.60069 23.84763 8270 ft 215 kts 24°
2026-04-30 10:29 42.61508 23.85146 7935 ft 214 kts 357°
2026-04-30 10:29 42.62957 23.84762 7674 ft 213 kts 336°
2026-04-30 10:29 42.64132 23.83603 7442 ft 208 kts 307°
2026-04-30 10:30 42.64931 23.82008 7180 ft 203 kts 303°
2026-04-30 10:30 42.65724 23.80459 6921 ft 198 kts 304°
2026-04-30 10:30 42.66513 23.78956 6674 ft 193 kts 305°
2026-04-30 10:30 42.67235 23.77444 6427 ft 191 kts 293°
2026-04-30 10:31 42.67593 23.75728 6219 ft 190 kts 278°
2026-04-30 10:31 42.67725 23.73939 5980 ft 190 kts 273°
2026-04-30 10:31 42.67820 23.72150 5733 ft 190 kts 274°
2026-04-30 10:31 42.67925 23.70359 5500 ft 191 kts 274°
2026-04-30 10:32 42.68031 23.68566 5248 ft 190 kts 274°
2026-04-30 10:32 42.68141 23.66779 5006 ft 191 kts 275°
2026-04-30 10:32 42.68248 23.64985 4757 ft 190 kts 275°
2026-04-30 10:32 42.68355 23.63197 4506 ft 190 kts 275°
2026-04-30 10:33 42.68462 23.61407 4255 ft 190 kts 275°
2026-04-30 10:33 42.68569 23.59620 4004 ft 190 kts 275°
2026-04-30 10:33 42.68675 23.57852 3761 ft 185 kts 276°
2026-04-30 10:33 42.68775 23.56189 3552 ft 169 kts 276°
2026-04-30 10:34 42.68869 23.54619 3341 ft 166 kts 276°
2026-04-30 10:34 42.68963 23.53068 3094 ft 165 kts 276°
2026-04-30 10:34 42.69055 23.51538 2868 ft 158 kts 276°
2026-04-30 10:34 42.69149 23.50058 2676 ft 158 kts 273°
2026-04-30 10:35 42.69230 23.48584 2458 ft 154 kts 275°
2026-04-30 10:35 42.69318 23.47171 2240 ft 149 kts 278°
2026-04-30 10:35 42.69402 23.45787 2052 ft 147 kts 275°
2026-04-30 10:35 42.69469 23.44425 1923 ft 142 kts 275°
2026-04-30 10:36 42.69560 23.43104 1753 ft 132 kts 276°
2026-04-30 10:36 42.69627 23.42115 1749 ft 69 kts 275°
2026-04-30 10:36 42.69623 23.41730 1752 ft 28 kts 262°
2026-04-30 10:36 42.69582 23.41547 1751 ft 13 kts 246°
2026-04-30 10:37 42.69540 23.41432 1750 ft 14 kts 243°
2026-04-30 10:37 42.69498 23.41308 1750 ft 15 kts 248°
2026-04-30 10:37 42.69427 23.41210 1750 ft 16 kts 193°
2026-04-30 10:37 42.69315 23.41176 1750 ft 17 kts 192°
2026-04-30 10:38 42.69194 23.41163 1744 ft 17 kts 163°
2026-04-30 10:38 42.69122 23.41194 1743 ft 6 kts 158°
2026-04-30 10:38 42.69099 23.41238 1750 ft 7 kts 89°
2026-04-30 10:38 42.69104 23.41272 1750 ft 1 kts 77°
2026-04-30 10:39 42.69105 23.41276 1750 ft 0 kts 78°
2026-04-30 10:39 42.69107 23.41287 1750 ft 1 kts 76°
2026-04-30 10:44 42.69076 23.41456 1748 ft 0 kts 256°
2026-04-30 10:44 42.69004 23.40919 1745 ft 0 kts 341°